Wind_Speed
6 6 4 5 2 1 10 16 21 23 29 23 19 22 18 11 13 16 30 27 23 21 21 21 18 16 14 11 10 9 7 6 5 6 8 10 10 10 10 10 9 10 13 15 15 16 17 18 17
5 7 8 2 0 1 14 28 21 19 21 22 18 17 14 14 6 28 32 28 23 21 19 17 15 12 11 10 10 10 10 10 10 11 11 10 10 10 9 10 10 12 14 16 17 17 17 19 18
5 6 2 3 3 16 24 24 14 17 11 11 11 4 11 16 23 28 28 27 23 19 17 14 13 11 11 11 11 11 12 10 10 11 10 10 11 10 11 10 11 13 15 16 19 20 17 18 19
4 3 4 6 9 14 25 24 21 19 13 6 9 20 18 12 24 28 28 25 22 19 16 14 13 13 11 10 9 9 9 9 10 10 10 10 9 10 10 11 13 15 16 16 15 18 19 18 19
6 8 2 4 3 25 28 23 22 19 16 10 12 28 23 11 21 27 25 24 19 19 16 14 13 12 10 8 8 9 8 9 9 9 9 9 10 10 11 12 15 16 16 16 13 16 18 17 16
5 8 17 16 24 33 32 24 18 20 14 21 21 29 21 16 18 19 18 19 16 15 15 13 11 10 9 9 8 8 8 9 9 9 9 10 10 10 11 12 16 18 15 14 11 13 15 17 14
7 12 9 19 25 28 28 27 24 15 22 26 23 29 25 20 15 16 12 16 17 14 14 12 10 10 9 9 8 7 8 9 9 10 9 10 12 12 14 13 16 16 11 18 9 7 14 14 13
12 12 13 13 22 24 26 20 31 28 26 15 17 29 34 30 20 12 9 24 18 16 11 11 10 11 10 10 10 11 12 12 13 11 11 15 17 16 20 18 19 22 21 17 15 12 11 13 14
12 6 6 9 15 22 16 25 19 23 29 19 9 26 29 23 17 16 15 18 19 15 13 12 10 12 12 12 11 12 14 16 14 15 14 19 20 19 21 20 20 23 16 13 15 15 13 13 14
18 1 9 7 7 19 24 19 11 17 24 17 25 31 30 28 14 17 13 14 11 11 11 12 12 11 14 13 12 13 14 14 17 13 14 20 23 20 19 14 15 17 15 12 17 17 24 19 16
4 13 6 12 12 16 19 16 11 19 18 11 27 40 37 31 13 12 15 15 12 13 9 10 11 14 13 13 10 16 13 12 14 14 14 21 23 20 18 14 13 11 12 16 11 14 20 23 25
9 9 9 6 10 12 11 11 19 17 32 28 22 38 34 26 20 9 14 14 14 8 5 7 13 15 12 9 7 15 12 13 16 11 13 22 20 16 13 13 9 14 14 15 13 13 16 20 18
7 2 9 7 5 9 4 12 19 24 28 33 27 36 34 22 16 10 15 13 9 4 7 12 9 10 10 7 15 15 13 16 14 12 13 16 15 10 19 12 10 19 14 14 16 15 17 13 11
11 6 5 16 2 7 5 12 19 20 25 34 28 33 30 25 20 15 8 19 6 10 10 10 6 12 9 14 15 11 9 10 10 13 15 13 14 16 13 13 16 15 18 15 18 17 18 11 11
9 9 14 17 8 6 7 17 17 25 34 33 27 31 29 26 22 20 14 16 11 10 10 7 11 12 10 7 9 6 12 15 11 11 11 14 14 11 14 11 11 21 15 13 13 18 16 15 12
8 7 6 25 14 8 3 14 20 26 34 31 33 32 30 26 23 19 19 18 16 12 9 11 13 11 13 9 9 9 15 12 10 11 10 10 9 12 11 10 11 13 14 11 13 15 15 13 15
21 14 18 23 18 10 7 15 18 23 31 35 35 33 31 29 26 25 25 14 15 12 9 13 14 13 13 10 10 9 11 14 9 7 6 9 8 9 8 7 12 13 12 10 11 14 14 14 14
20 23 16 19 12 20 11 9 24 23 31 38 37 34 31 29 23 20 19 20 20 16 12 12 16 13 13 12 13 11 11 11 17 13 8 7 10 7 8 8 13 11 9 11 14 14 14 15 14
20 20 24 20 12 19 17 13 26 24 38 37 35 33 32 28 26 26 19 21 19 15 17 13 13 13 12 13 11 12 10 9 12 9 8 9 11 6 5 6 9 8 12 12 11 11 15 15 17
24 24 15 16 19 15 28 20 25 28 37 39 35 33 33 30 26 25 26 21 19 13 17 13 11 12 12 13 16 12 10 11 12 11 9 5 10 7 7 6 6 8 11 10 13 10 14 14 14
27 25 19 24 17 16 11 8 13 27 36 37 38 34 33 32 26 25 23 22 19 13 17 13 13 13 13 13 13 13 13 8 8 8 9 7 10 9 8 9 9 8 8 11 11 10 12 14 16
25 18 20 15 15 14 17 1 10 24 32 37 40 39 37 33 29 25 21 21 16 11 11 17 15 15 15 14 15 15 7 11 11 10 10 8 6 10 7 6 8 12 10 6 13 14 15 12 18
26 20 16 15 18 12 27 10 21 30 28 27 33 41 39 35 34 30 24 24 20 13 11 14 17 17 17 15 13 13 15 15 12 12 10 9 7 8 8 9 10 9 6 6 11 11 8 13 17
19 18 9 10 16 5 22 16 19 32 28 24 22 29 32 35 34 30 30 22 21 18 10 7 16 19 18 17 15 17 17 12 10 12 9 11 12 11 10 9 11 8 9 10 7 14 12 16 15
19 16 10 3 6 8 20 29 7 26 23 19 26 27 25 30 36 32 33 28 25 22 13 9 12 19 20 19 20 18 15 10 10 10 10 11 11 11 10 10 8 8 9 8 7 8 9 13 10
20 16 15 7 5 11 12 10 9 26 19 15 23 30 27 29 40 36 33 30 23 26 18 13 10 15 19 20 20 20 17 15 13 12 10 15 12 11 10 8 9 9 7 7 8 8 9 11 12
22 24 24 22 24 12 10 13 23 24 27 24 18 18 28 29 32 35 36 31 27 28 26 17 12 11 17 19 19 19 19 18 19 14 13 13 8 10 8 6 5 6 9 7 7 7 7 8 10
20 10 14 10 4 4 7 11 12 19 24 23 22 20 30 27 31 29 32 29 34 37 30 24 20 13 14 18 18 18 18 16 16 16 15 12 13 11 9 5 4 5 4 7 6 5 6 6 6
23 18 9 9 11 5 5 3 12 26 28 30 30 30 27 23 26 19 35 41 39 35 37 32 29 23 21 19 18 18 18 17 16 15 16 13 13 9 6 9 8 6 4 4 5 4 6 4 5
13 14 12 12 8 9 10 5 16 14 17 27 27 29 26 22 21 20 25 25 19 29 29 30 36 31 25 24 25 22 19 18 16 15 15 14 14 13 10 10 9 8 7 5 2 3 4 3 2
Wind_Direction
142 150 180 212 106 156 133 130 111 92 95 144 151 159 159 144 138 143 142 139 142 139 134 129 126 119 117 117 117 118 118 113 97 81 75 77 77 83 88 95 101 104 99 93 89 91 88 88 88
159 161 154 119 168 11 120 128 114 106 120 141 143 147 149 130 161 141 139 141 138 133 129 129 125 117 111 110 108 108 107 101 90 82 75 69 69 71 81 95 104 111 108 102 96 89 87 90 86
210 181 141 250 208 146 133 132 118 118 138 163 142 158 151 141 140 139 141 142 137 135 134 132 124 113 107 103 101 101 97 87 83 80 76 74 75 80 92 98 109 114 115 112 99 90 86 85 86
176 65 269 281 272 145 130 123 132 133 102 150 170 88 99 103 129 141 146 145 141 136 134 131 121 117 114 109 102 102 96 89 87 86 81 76 79 83 91 100 111 116 117 119 108 87 79 77 84
77 337 220 171 286 134 139 134 161 148 126 116 135 122 118 119 134 146 146 137 143 135 129 124 121 119 109 100 100 103 97 93 89 86 78 73 77 78 84 101 113 117 117 113 105 86 75 75 74
35 74 137 184 134 145 134 133 166 166 131 134 136 130 127 132 123 115 120 133 143 130 126 123 118 111 108 103 95 94 93 95 94 88 82 77 74 83 95 106 113 119 121 109 106 77 74 77 77
358 290 213 142 136 133 135 140 129 137 130 139 139 132 126 129 125 103 125 112 142 135 128 128 123 112 105 100 96 99 104 108 99 89 83 78 80 96 102 103 113 116 107 114 126 106 83 79 81
355 345 18 138 143 130 150 148 128 129 128 142 146 133 142 152 121 103 149 121 123 127 129 122 117 110 100 91 91 97 114 106 96 91 83 88 93 109 111 100 103 123 106 88 91 98 98 96 90
290 346 45 144 165 162 154 169 140 130 148 141 150 139 133 148 140 154 157 134 131 124 137 124 119 105 99 86 87 97 108 110 101 93 80 96 102 113 116 113 111 115 102 88 95 94 90 90 93
239 2 46 90 144 169 157 173 153 146 149 167 148 134 141 150 160 156 154 160 159 122 136 123 112 116 100 97 82 99 107 106 98 86 102 105 109 121 122 128 124 118 104 95 122 114 100 98 96
186 110 64 63 43 169 163 168 184 166 155 176 157 143 147 167 161 172 153 178 148 134 122 126 121 125 109 92 108 104 122 106 103 90 107 105 109 123 118 121 119 112 106 106 117 93 96 105 94
101 132 138 65 78 100 168 161 156 160 151 170 163 143 157 163 162 147 161 187 151 167 138 109 127 121 101 142 92 121 130 113 105 96 97 100 103 108 121 120 154 128 103 112 135 110 100 107 102
272 19 185 149 82 57 127 179 161 167 149 163 158 145 158 162 163 164 190 155 151 184 188 142 142 131 128 137 127 127 126 106 107 106 97 122 114 130 118 115 113 82 118 121 120 97 98 80 99
280 184 165 174 222 29 69 166 171 166 163 162 158 147 148 163 177 173 188 161 167 227 174 126 157 148 154 136 116 121 99 124 116 116 105 103 124 124 111 95 107 103 97 113 125 98 85 83 121
238 176 170 191 209 89 117 127 161 160 163 167 159 152 153 151 181 177 209 183 211 196 175 166 160 146 145 123 156 136 126 128 114 99 108 117 117 105 119 106 95 101 108 105 96 94 76 75 92
267 221 200 169 188 152 135 160 164 159 161 170 161 158 156 164 180 186 198 175 215 224 163 175 163 163 168 154 136 92 109 126 117 112 102 117 135 143 124 125 107 102 110 100 126 117 102 97 108
221 219 221 183 213 208 196 165 183 173 176 171 165 161 160 179 191 200 208 217 247 210 189 172 166 165 169 153 148 143 138 125 150 136 133 148 123 121 121 106 131 123 123 127 102 96 96 101 86
221 220 211 188 174 167 195 202 173 175 171 172 166 159 165 184 188 190 209 226 228 201 204 182 163 168 177 162 157 149 136 129 125 122 138 127 116 133 148 129 128 129 122 125 122 129 112 103 94
219 222 227 216 239 226 210 190 173 167 165 169 164 167 176 185 192 188 212 229 213 201 212 203 169 170 178 172 161 147 145 148 138 129 145 133 138 131 159 142 146 126 156 132 145 120 129 128 111
240 253 191 195 200 196 204 165 171 175 170 167 170 176 184 191 194 199 209 225 227 203 209 208 181 181 183 187 176 160 149 149 146 142 143 148 112 140 145 146 144 133 146 137 137 116 139 130 121
245 257 213 222 194 243 142 117 192 181 169 177 180 183 192 193 197 201 211 226 231 209 206 211 193 192 192 195 191 159 147 147 135 141 138 142 121 120 144 154 151 145 153 170 150 152 159 144 133
246 242 250 194 215 188 198 71 238 198 188 190 187 186 198 196 204 211 213 232 228 213 205 214 205 199 205 206 209 176 191 176 179 146 135 138 121 111 124 138 149 137 150 155 147 135 162 168 147
234 232 193 208 225 179 171 147 201 191 193 185 203 201 204 205 199 205 210 223 243 239 205 216 208 212 205 217 211 203 186 176 181 148 137 143 137 109 98 103 131 151 153 151 161 158 159 168 159
233 224 228 254 213 215 206 153 197 192 192 185 200 206 209 205 204 203 215 230 245 237 216 219 216 213 211 210 207 195 187 190 183 169 152 156 146 132 131 119 118 134 137 153 155 176 182 173 165
236 228 243 188 188 226 230 196 197 189 188 193 191 196 208 212 202 204 214 223 232 240 233 227 230 214 216 205 206 210 199 209 188 205 180 166 164 155 154 141 127 119 112 136 170 156 165 182 172
230 233 228 206 192 213 205 175 166 175 192 196 234 210 198 211 200 201 218 227 234 236 243 224 245 224 211 204 202 205 209 202 195 204 194 179 174 167 175 155 148 141 131 132 139 146 167 181 185
240 243 234 267 294 224 114 131 152 177 192 185 188 205 209 203 210 212 217 229 225 235 240 228 237 236 223 209 208 213 210 207 201 204 210 204 189 173 173 148 162 164 143 140 128 140 143 172 195
223 225 244 240 283 72 115 142 169 169 177 192 178 175 213 213 205 214 214 211 221 206 232 225 218 232 244 222 215 212 215 216 211 214 219 206 208 190 197 188 193 203 189 165 165 152 136 131 174
220 240 240 280 280 141 148 84 187 181 177 179 183 188 193 191 206 219 210 216 214 215 208 222 217 215 206 216 222 216 216 213 217 216 219 230 232 234 230 203 218 215 212 209 198 183 212 173 163
216 237 245 260 285 110 153 130 138 155 189 205 207 199 204 206 200 208 220 226 230 271 212 211 223 217 214 207 213 220 221 215 213 211 216 218 224 237 229 227 195 194 216 236 239 252 253 243 228
Height
3159 3160 3160 3161 3165 3161 3163 3166 3167 3169 3166 3167 3169 3171 3174 3176 3176 3182 3183 3187 3192 3194 3196 3198 3199 3200 3201 3202 3204 3205 3206 3206 3207 3208 3208 3208 3209 3209 3210 3210 3211 3213 3214 3215 3216 3216 3215 3215 3216
3160 3159 3161 3160 3163 3159 3162 3166 3169 3170 3169 3168 3168 3172 3174 3176 3179 3178 3183 3189 3193 3196 3198 3199 3200 3202 3203 3203 3204 3205 3207 3207 3208 3208 3209 3209 3209 3209 3210 3211 3212 3214 3215 3217 3218 3218 3218 3217 3217
3159 3159 3160 3157 3157 3160 3164 3168 3171 3169 3170 3169 3169 3172 3175 3177 3181 3181 3188 3191 3194 3197 3199 3201 3202 3203 3204 3205 3206 3207 3208 3208 3208 3209 3210 3210 3211 3211 3211 3212 3213 3215 3216 3218 3219 3219 3220 3219 3219
3160 3161 3157 3159 3153 3163 3165 3170 3169 3167 3170 3170 3170 3171 3176 3182 3183 3186 3189 3193 3196 3198 3201 3202 3203 3205 3206 3206 3207 3208 3209 3210 3210 3210 3211 3212 3212 3213 3214 3215 3216 3218 3219 3220 3221 3221 3221 3221 3220
3160 3159 3154 3150 3156 3163 3165 3168 3169 3169 3169 3171 3171 3177 3180 3186 3186 3188 3192 3197 3198 3200 3202 3204 3205 3206 3207 3208 3208 3209 3209 3210 3211 3211 3212 3212 3214 3215 3215 3215 3217 3219 3222 3222 3223 3223 3223 3223 3223
3159 3159 3156 3149 3157 3162 3164 3165 3166 3169 3172 3172 3172 3177 3183 3189 3190 3193 3195 3198 3200 3203 3203 3205 3207 3207 3208 3209 3209 3210 3210 3211 3211 3212 3212 3213 3215 3216 3216 3217 3219 3220 3222 3224 3225 3226 3226 3226 3226
3158 3147 3148 3159 3149 3162 3166 3167 3167 3175 3177 3175 3175 3176 3186 3190 3193 3195 3196 3200 3202 3204 3205 3206 3208 3209 3209 3209 3209 3210 3211 3211 3212 3213 3214 3215 3216 3218 3219 3220 3221 3224 3223 3225 3227 3228 3227 3228 3229
3157 3158 3150 3151 3155 3161 3166 3168 3172 3172 3181 3181 3179 3181 3185 3191 3194 3197 3196 3199 3203 3205 3207 3209 3209 3210 3211 3211 3211 3212 3212 3213 3214 3215 3216 3216 3218 3220 3222 3223 3224 3225 3228 3228 3228 3229 3230 3229 3230
3160 3161 3161 3158 3161 3160 3165 3168 3174 3174 3179 3181 3182 3184 3187 3193 3196 3199 3199 3200 3203 3207 3209 3210 3211 3211 3212 3213 3213 3213 3214 3215 3215 3216 3218 3219 3220 3223 3225 3226 3227 3230 3231 3231 3230 3231 3233 3233 3233
3160 3160 3161 3161 3161 3160 3164 3171 3172 3177 3177 3175 3183 3189 3192 3193 3199 3200 3201 3202 3203 3206 3209 3211 3212 3212 3213 3215 3215 3215 3217 3218 3218 3219 3221 3222 3223 3226 3228 3228 3231 3232 3231 3231 3232 3232 3231 3234 3236
3162 3158 3161 3160 3160 3161 3165 3169 3172 3174 3178 3180 3181 3187 3192 3195 3201 3201 3205 3205 3206 3208 3210 3212 3214 3214 3214 3216 3217 3218 3219 3221 3221 3222 3224 3224 3227 3230 3230 3231 3234 3234 3234 3235 3236 3234 3236 3237 3238
3159 3156 3163 3160 3162 3165 3167 3169 3172 3175 3176 3186 3186 3189 3192 3197 3201 3204 3202 3206 3208 3210 3210 3213 3213 3215 3216 3218 3218 3220 3222 3223 3224 3225 3227 3228 3230 3233 3232 3233 3231 3236 3240 3239 3239 3238 3238 3239 3238
3163 3163 3164 3162 3161 3163 3168 3171 3173 3173 3177 3185 3188 3192 3196 3197 3202 3204 3204 3207 3211 3211 3213 3214 3215 3217 3218 3219 3220 3221 3223 3225 3227 3228 3227 3231 3231 3233 3235 3238 3236 3238 3238 3238 3240 3241 3240 3241 3240
3166 3166 3164 3163 3163 3165 3166 3169 3173 3176 3179 3184 3189 3194 3198 3201 3202 3203 3205 3207 3211 3212 3214 3215 3215 3218 3219 3222 3222 3222 3223 3226 3229 3230 3231 3233 3234 3235 3235 3237 3239 3239 3241 3240 3241 3242 3242 3244 3245
3163 3161 3163 3163 3163 3165 3167 3171 3174 3174 3179 3186 3190 3195 3199 3203 3203 3204 3205 3208 3210 3211 3213 3215 3218 3219 3221 3221 3222 3224 3225 3227 3230 3233 3234 3234 3235 3236 3236 3237 3236 3240 3240 3242 3244 3244 3245 3247 3247
3161 3163 3162 3162 3164 3166 3169 3171 3175 3177 3180 3185 3190 3194 3199 3204 3203 3205 3206 3208 3210 3213 3215 3216 3219 3221 3222 3223 3226 3226 3226 3229 3230 3232 3235 3236 3237 3238 3239 3239 3239 3240 3241 3245 3247 3246 3247 3249 3248
3156 3159 3161 3163 3165 3165 3169 3171 3174 3177 3181 3183 3188 3193 3198 3202 3205 3207 3208 3208 3209 3213 3214 3216 3218 3221 3222 3224 3227 3227 3229 3231 3232 3233 3235 3236 3238 3239 3240 3241 3241 3242 3245 3247 3247 3248 3249 3250 3250
3152 3155 3158 3159 3153 3159 3165 3168 3171 3174 3178 3182 3187 3192 3197 3200 3203 3204 3207 3209 3210 3212 3214 3216 3219 3221 3223 3224 3227 3229 3229 3231 3234 3234 3236 3238 3238 3239 3241 3242 3244 3243 3246 3248 3249 3250 3251 3252 3252
3152 3156 3157 3159 3160 3162 3165 3165 3169 3173 3177 3182 3187 3191 3196 3199 3202 3205 3206 3206 3209 3212 3214 3216 3219 3222 3224 3225 3228 3230 3231 3233 3235 3235 3237 3239 3240 3240 3241 3243 3245 3244 3246 3248 3250 3250 3251 3253 3254
3149 3153 3153 3156 3156 3162 3153 3165 3168 3174 3176 3181 3186 3191 3194 3196 3199 3203 3203 3205 3206 3211 3213 3216 3220 3222 3225 3226 3227 3230 3232 3234 3235 3236 3238 3238 3240 3241 3242 3243 3246 3246 3247 3248 3250 3252 3253 3254 3255
3147 3149 3152 3154 3153 3152 3156 3166 3174 3175 3179 3183 3186 3191 3194 3194 3196 3200 3201 3202 3205 3209 3213 3215 3219 3222 3224 3226 3229 3231 3232 3235 3236 3237 3237 3239 3240 3242 3243 3244 3244 3245 3248 3249 3251 3252 3254 3255 3256
3145 3148 3148 3151 3152 3152 3156 3168 3171 3175 3175 3180 3184 3188 3191 3195 3196 3199 3200 3199 3202 3207 3212 3214 3218 3221 3223 3226 3229 3231 3231 3234 3236 3237 3238 3240 3240 3241 3241 3242 3244 3246 3249 3250 3251 3251 3254 3255 3256
3142 3148 3148 3147 3151 3154 3159 3160 3163 3168 3176 3179 3183 3187 3190 3194 3196 3198 3200 3200 3203 3206 3210 3212 3216 3218 3221 3223 3228 3230 3232 3235 3236 3236 3240 3242 3241 3241 3242 3243 3244 3246 3248 3249 3251 3252 3254 3255 3257
3141 3147 3147 3148 3149 3150 3151 3155 3160 3165 3170 3175 3181 3184 3189 3193 3196 3198 3201 3203 3202 3205 3208 3211 3214 3217 3220 3222 3225 3229 3232 3233 3236 3238 3238 3241 3242 3242 3243 3244 3246 3246 3248 3248 3250 3251 3254 3256 3257
3137 3140 3144 3149 3150 3151 3146 3152 3150 3157 3164 3169 3176 3179 3187 3190 3194 3198 3199 3203 3202 3204 3208 3211 3212 3216 3218 3221 3224 3227 3230 3233 3237 3239 3239 3241 3242 3243 3244 3244 3245 3246 3247 3248 3249 3250 3252 3255 3256
3134 3138 3141 3148 3144 3142 3142 3146 3150 3160 3166 3171 3173 3177 3178 3185 3188 3194 3196 3200 3201 3203 3207 3210 3212 3214 3216 3219 3223 3227 3229 3233 3236 3237 3239 3239 3241 3244 3245 3245 3246 3246 3247 3249 3250 3249 3250 3252 3254
3132 3133 3137 3138 3137 3135 3144 3150 3153 3155 3161 3164 3168 3171 3172 3175 3185 3190 3192 3198 3201 3201 3204 3210 3212 3213 3216 3219 3221 3224 3228 3232 3234 3236 3237 3240 3241 3243 3245 3245 3247 3247 3246 3248 3249 3250 3250 3251 3252
3129 3131 3133 3135 3137 3137 3146 3148 3147 3151 3156 3159 3163 3159 3169 3174 3181 3185 3188 3190 3191 3192 3200 3206 3211 3213 3216 3218 3221 3223 3226 3228 3232 3234 3235 3238 3240 3244 3245 3245 3247 3248 3248 3247 3248 3250 3250 3250 3251
3127 3128 3131 3134 3134 3134 3147 3150 3149 3153 3155 3157 3160 3162 3166 3171 3175 3177 3180 3181 3184 3190 3191 3199 3205 3210 3211 3218 3221 3223 3224 3227 3230 3232 3234 3237 3239 3241 3243 3244 3244 3247 3247 3248 3248 3249 3250 3250 3250
3126 3127 3131 3132 3134 3134 3138 3150 3150 3149 3156 3158 3158 3161 3163 3169 3173 3174 3179 3181 3182 3181 3180 3190 3200 3204 3210 3210 3215 3221 3224 3226 3227 3231 3234 3236 3238 3239 3242 3242 3244 3245 3247 3247 3246 3248 3250 3250 3250